Miscellaneous Local Product
Issued by NWS Hastings, NE

Home | Current Version | Previous Version | Graphics & Text | Print | Product List | Glossary On
Versions: 1 2 3 4 5 6 7 8 9 10 11 12 13 14 15 16 17 18 19 20 21 22 23 24 25 26 27 28 29 30 31 32 33 34 35 36 37 38 39 40 41 42 43 44 45 46 47 48 49 50
476
AXUS43 KGID 302202
MISGRI

GID CWA HOURLY WEATHER ROUNDUP
NATIONAL WEATHER SERVICE HASTINGS NE
400 PM CST WED NOV 30 2016

NOTE: "FAIR" INDICATES FEW OR NO CLOUDS BELOW 12,000 FEET WITH NO
SIGNIFICANT WEATHER AND/OR OBSTRUCTIONS TO VISIBILITY.

...SOUTH CENTRAL NEBRASKA...

CITY           SKY/WX    TMP DP  RH WIND       PRES   REMARKS
GRAND ISLAND   CLOUDY    34  21  59 NW24G31   29.83R WCI  21
HASTINGS       PTCLDY    34  20  56 NW21G30   29.85R WCI  22
KEARNEY        CLEAR     36  19  51 NW23      29.84R WCI  24
ORD            CLOUDY    32  19  58 NW16      29.82R WCI  21
YORK           CLOUDY    34  23  64 NW22G29   29.82R WCI  22
AURORA         CLOUDY    34  22  61 NW21      29.83R WCI  22
LEXINGTON      PTSUNNY   34  24  66 NW16      29.85S WCI  24
HOLDREGE       PTSUNNY   32  22  66 NW16G23   29.86R WCI  22
HEBRON         CLOUDY    37  21  52 NW16G25   29.85S WCI  28

...NEBRASKA PANHANDLE...

CITY           SKY/WX    TMP DP  RH WIND       PRES   REMARKS
CHADRON        CLOUDY    38  13  35 NW29G36   29.85R WCI  26
ALLIANCE       SUNNY     38  12  34 NW22G30   29.82R WCI  27
SCOTTSBLUFF    SUNNY     40   7  25 NW23G31   29.87R WCI  30
SIDNEY         SUNNY     37   8  30 NW25G36   29.86R WCI  25

...WESTERN AND NORTH CENTRAL NEBRASKA...

CITY           SKY/WX    TMP DP  RH WIND       PRES   REMARKS
VALENTINE      CLOUDY    27  19  72 NW18      29.84R WCI  14
AINSWORTH      CLOUDY    28  22  78 NW21G29   29.83R WCI  14
ONEILL         CLOUDY    31  24  78 NW21G29   29.80R WCI  18
BROKEN BOW     PTCLDY    31  21  66 NW20      29.83R WCI  19
IMPERIAL       SUNNY     43   7  22 NW23G32   29.85R
NORTH PLATTE   CLOUDY    36  22  56 N10       29.84R WCI  28
MCCOOK         MOSUNNY   45  14  28 NW21G36   29.85R

...EASTERN NEBRASKA...

CITY           SKY/WX    TMP DP  RH WIND       PRES   REMARKS
NORFOLK        FLURRIES  31  24  75 NW20G28   29.77R WCI  19
SO SIOUX CITY  CLOUDY    35  29  78 NW23      29.73R WCI  23
TEKAMAH        CLOUDY    35  27  72 NW17G26   29.76R WCI  25
COLUMBUS       CLOUDY    34  21  60 W21       29.80R WCI  22
ALBION         CLOUDY    32  22  68 NW22      29.80R WCI  19
OMAHA EPPLEY   FLURRIES  35  26  69 W17       29.77R WCI  25
OFFUTT AFB     FLURRIES  36  26  68 W17       29.78R WCI  25
MILLARD        CLOUDY    35  26  69 W18G25    29.79R WCI  25
LINCOLN        CLOUDY    37  23  56 NW20G25   29.82R WCI  27
NEBRASKA CITY  CLOUDY    36  21  55 NW18G24   29.80R WCI  25
BEATRICE       CLOUDY    37  24  60 NW21      29.83R WCI  26
FALLS CITY     CLOUDY    37  24  59 W18G24    29.82R WCI  27

...NORTHERN KANSAS...

CITY           SKY/WX    TMP DP  RH WIND       PRES   REMARKS
GOODLAND       SUNNY     44   5  20 NW22G29   29.87S
HILL CITY      SUNNY     47  14  26 NW22G30   29.88R
NORTON         CLEAR     45  10  24 NW18G26   29.85R
PHILLIPSBURG   SUNNY     45  19  36 NW12G23   29.87R
SMITH CENTER   SUNNY     39  21  48 NW17G24   29.87S WCI  30
BELOIT         MOSUNNY   41  21  45 NW20G31   29.88R
HAYS           SUNNY     48  13  24 NW22G30   29.87R
RUSSELL        SUNNY     47  15  27 NW23G30   29.86R
CONCORDIA      CLOUDY    39  23  52 NW20G29   29.86S WCI  29
SALINA         SUNNY     46  21  37 NW26G32   29.88R
TOPEKA         CLOUDY    41  23  48 W14G23    29.86R



USA.gov is the U.S. government's official web portal to all federal, state and local government web resources and services.